This is the latest recevied weather packets stored in our database for station/object N4OOJ-13. If no packets are shown the sender has not sent any weather packets the latest 10 day(s).
| Time | Temp. | Humidity | Pressure | Rain* | Wind** | Luminosity | Snow |
|---|---|---|---|---|---|---|---|
| 1777578624 | 26.11° C | 66% | 1010.6 hPa | 0 mm | - | - | - |
| 1777578017 | 26.11° C | 67% | 1010.7 hPa | 0 mm | - | - | - |
| 1777577418 | 26.67° C | 67% | 1010.7 hPa | 0 mm | - | - | - |
| 1777576832 | 26.11° C | 67% | 1011 hPa | 0 mm | - | - | - |
| 1777576225 | 25.56° C | 69% | 1011.1 hPa | 0 mm | - | - | - |
| 1777575620 | 25° C | 73% | 1011.1 hPa | 0 mm | - | - | - |
| 1777575020 | 25° C | 72% | 1011.2 hPa | 0 mm | - | - | - |
| 1777574433 | 25° C | 72% | 1011.2 hPa | 0 mm | - | - | - |
| 1777573827 | 25° C | 74% | 1011 hPa | 0 mm | - | - | - |
| 1777573223 | 24.44° C | 74% | 1011.1 hPa | 0 mm | - | - | - |
| 1777572619 | 24.44° C | 73% | 1011 hPa | 0 mm | - | - | - |
| 1777572026 | 24.44° C | 74% | 1010.9 hPa | 0 mm | - | - | - |
| 1777571421 | 24.44° C | 74% | 1010.8 hPa | 0 mm | - | - | - |
| 1777570821 | 24.44° C | 73% | 1010.9 hPa | 0 mm | - | - | - |
| 1777570216 | 25° C | 74% | 1010.6 hPa | 0 mm | - | - | - |
| 1777569616 | 24.44° C | 75% | 1010.7 hPa | 0 mm | - | - | - |
| 1777569016 | 24.44° C | 74% | 1010.7 hPa | 0 mm | - | - | - |
| 1777568433 | 25° C | 73% | 1010.7 hPa | 0 mm | - | - | - |
| 1777567826 | 23.89° C | 77% | 1010.7 hPa | 0 mm | - | - | - |
| 1777567221 | 23.89° C | 79% | 1010.7 hPa | 0 mm | - | - | - |
| 1777566618 | 23.33° C | 80% | 1010.8 hPa | 0 mm | - | - | - |
| 1777566024 | 23.33° C | 80% | 1011 hPa | 0 mm | - | - | - |
| 1777565419 | 22.78° C | 81% | 1011 hPa | 0 mm | - | - | - |
| 1777564819 | 22.78° C | 82% | 1011 hPa | 0 mm | - | - | - |
| 1777564233 | 23.33° C | 82% | 1011.1 hPa | 0 mm | - | - | - |
* Rain latest hour (hover to see other rain measurements)
** Current wind speed in m/s (hover to see current wind gust speed)